Vertical_Velocity
-1 -4 -5 1 -2 -3 -2 -0 5 10 11 2 -2 -3 -3 -3 -3 -2 -1 -1 3 7 8 7 9 8 4 2 2 2 3 3 1 0 -1 -1 -2 -2 -2 -1 -1 -1 -1 -1 -0 -0 0 1 1 1 0 -0 -1 -1 -1 -1 -0 -0 -0 -0 -0 0 1 1 1 0 0 -0 -1
-3 -5 -3 6 -0 -3 -2 3 11 10 4 -2 -2 -2 -2 -3 -3 -2 -1 0 6 8 8 5 6 5 3 1 2 3 3 1 -0 -1 -1 -1 -2 -1 -1 -1 -1 -1 -1 -0 -0 1 1 1 1 0 -1 -1 -1 -1 -1 -0 -0 -0 -0 -0 -0 0 1 1 0 -0 -0 -1 -1
-5 -2 3 6 -1 -3 1 10 13 7 0 -3 -2 -2 -1 -1 0 1 2 4 8 9 8 5 3 2 1 2 3 2 1 -0 -1 -1 -1 -1 -1 -1 -1 -1 -1 -1 -0 0 1 1 2 1 0 -1 -1 -1 -1 -0 -0 -0 0 0 -0 -0 0 1 1 0 -0 -0 -0 -0 -0
-3 0 4 -1 -4 -2 6 19 8 2 -2 -3 -3 -2 -1 2 4 4 4 7 12 13 12 8 4 2 2 4 2 1 -0 -1 -1 -2 -2 -2 -1 -1 -1 -1 -1 -0 0 1 2 2 1 0 -1 -1 -1 -1 -0 -0 -0 -0 0 0 0 0 1 1 0 -1 -1 -0 -0 -0 -0
-6 -2 -0 -5 -3 2 10 16 5 -0 -1 -1 -1 -1 -0 4 8 8 9 12 18 20 19 14 9 6 4 2 0 -1 -1 -1 -1 -2 -1 -1 -2 -1 -1 -1 -0 0 1 2 2 1 0 -1 -1 -1 -1 -1 -0 -0 -0 0 0 0 0 0 1 0 -0 -1 -0 -0 0 0 -0
-5 -2 -1 -3 -0 4 7 5 1 1 1 0 -0 -0 1 4 10 12 14 16 18 22 24 23 17 10 4 -1 -2 -2 -2 -2 -2 -1 -1 -1 -1 -1 -1 -1 -0 1 2 2 1 -0 -1 -1 -1 -1 -1 -0 -0 -0 0 1 1 1 0 0 -0 -0 -0 -0 -0 0 0 0 -0
-2 -2 -2 -0 1 -0 -1 -3 -0 1 2 1 1 1 2 2 7 10 14 18 20 24 26 24 15 6 -0 -3 -2 -2 -2 -2 -2 -1 -1 -1 -1 -1 -1 -0 1 2 2 1 -0 -1 -1 -1 -1 -1 -0 0 0 0 0 1 1 0 0 -0 -0 -0 0 0 -0 0 0 -0 -0
0 -3 -4 -2 -2 -2 -2 -0 -0 1 2 1 1 1 2 2 3 8 16 24 23 22 20 14 6 0 -3 -3 -2 -2 -2 -2 -1 -1 -1 -1 -0 -0 0 1 2 2 1 -0 -1 -1 -1 -1 -0 -0 -0 0 0 1 1 1 0 0 -0 -0 -0 0 0 0 0 0 0 -0 -0
-2 -3 -3 -3 -3 -2 -0 -0 -1 -0 1 0 0 1 1 2 4 10 18 23 19 15 10 5 0 -2 -2 -2 -2 -2 -2 -1 -0 0 0 -0 0 1 1 2 1 1 -0 -0 -0 -1 -0 -0 -0 -0 0 1 1 1 1 1 0 0 -0 -0 0 0 0 0 0 0 -0 -0 0
-6 -5 -4 -6 -3 -1 -1 -1 -1 -1 -1 0 1 1 2 3 9 14 17 16 11 7 4 1 -1 -2 -2 -2 -3 -2 -1 -0 0 1 1 1 1 2 2 2 1 -0 -0 -0 -0 -0 -0 -0 0 0 1 1 1 1 1 1 1 0 0 0 0 0 0 0 0 0 -0 -0 0
-9 -8 -7 -6 -4 -3 -3 -4 -3 -2 -1 1 2 2 3 9 16 17 14 8 6 4 3 1 -1 -2 -2 -2 -2 -2 -1 -0 1 1 1 2 2 2 2 1 -0 -0 -1 -1 -1 -0 -0 0 0 1 1 2 1 1 1 1 1 1 1 1 1 0 0 -0 -0 -0 -0 -0 0
-10 -8 -7 -5 -4 -4 -5 -5 -4 -3 -1 1 1 1 6 17 20 15 9 5 6 5 3 1 0 -0 -1 -1 -1 -0 -0 0 1 1 2 2 1 1 -0 -1 -1 -1 -1 -1 -1 -0 0 0 1 2 2 1 1 1 1 1 1 1 1 1 1 0 -0 -1 -0 -0 -0 0 -0
-8 -6 -4 -4 -3 -3 -3 -3 -2 -0 1 2 0 3 10 20 16 11 8 8 8 6 4 5 3 1 -1 -0 -0 0 1 1 1 2 1 1 -0 -1 -1 -1 -1 -1 -1 -1 -0 0 1 1 2 2 2 1 1 1 1 1 1 1 1 0 0 -0 -0 -0 -0 -0 -0 -0 -0
-5 -4 -2 -2 -1 -0 1 1 2 3 3 2 1 6 12 16 12 10 10 11 10 8 6 7 4 1 -0 -0 0 0 0 1 1 1 -0 -1 -2 -2 -1 -1 -1 -1 -1 -0 0 1 1 1 1 1 1 1 1 1 1 1 1 1 0 0 -0 -0 -0 -0 -0 -0 -0 -0 -0
-3 -1 -1 0 1 2 3 4 3 3 3 1 2 6 10 10 11 12 13 13 10 8 5 4 2 1 1 1 0 0 -0 0 -0 -1 -2 -2 -2 -1 -1 -1 -1 -1 -0 0 1 1 1 1 1 1 1 1 1 1 1 1 1 0 0 -0 -0 -0 -0 -0 -0 -0 -0 -0 -0
-2 -0 1 3 3 3 3 3 4 3 2 0 2 4 7 12 15 16 15 12 9 6 3 2 2 2 2 2 1 0 -0 -1 -2 -2 -2 -2 -1 -1 -2 -2 -1 -1 -0 0 1 1 1 1 1 1 2 1 1 1 1 1 0 0 0 0 0 -0 -0 -1 -1 -0 -0 0 0
-1 1 3 4 3 3 3 5 4 2 0 -0 1 5 10 18 19 17 13 8 7 5 2 2 2 3 3 2 2 1 -0 -1 -2 -2 -2 -2 -2 -2 -2 -2 -1 -0 -0 0 1 1 1 1 2 2 2 1 1 0 0 0 0 0 1 1 0 -0 -0 -1 -0 -0 0 0 0
0 2 3 2 1 2 4 4 1 -1 -2 -1 2 10 18 23 19 14 8 6 7 5 3 2 3 2 2 2 1 0 -1 -1 -2 -2 -2 -3 -3 -3 -2 -1 -1 -0 -0 0 1 1 2 2 2 2 1 1 0 0 0 0 1 1 1 1 0 -0 -0 -0 -0 0 1 0 0
1 1 1 -0 -0 1 1 -1 -2 -2 -0 3 10 18 24 21 12 7 5 5 5 4 3 3 2 2 1 -0 -1 -1 -1 -2 -2 -3 -3 -4 -3 -2 -1 -1 -0 -0 0 1 1 2 2 2 2 1 1 1 0 0 1 1 1 1 1 1 0 -0 -0 0 0 1 1 0 0
0 -1 -2 -1 1 -0 -2 -3 0 4 8 13 21 24 21 10 4 2 3 3 3 2 2 2 1 0 -1 -2 -2 -2 -2 -3 -3 -4 -4 -3 -2 -1 -1 -0 -0 0 1 1 2 2 2 2 1 1 1 1 1 1 1 1 1 1 0 0 -0 -0 0 0 0 0 0 -0 -0
-2 -3 -1 8 9 6 3 4 8 11 14 17 21 20 13 1 2 2 2 2 2 2 1 1 -0 -1 -2 -3 -3 -4 -4 -4 -4 -4 -3 -2 -1 -1 -1 -0 0 1 1 2 2 2 2 1 1 1 1 1 1 1 1 1 1 0 0 -0 0 0 0 0 0 0 -0 -0 0
-3 -1 6 21 17 12 10 11 12 12 11 11 17 15 8 -1 1 2 2 2 2 1 0 -1 -2 -2 -3 -4 -4 -4 -4 -4 -4 -3 -2 -1 -1 -1 -0 0 1 1 2 2 2 2 1 1 1 1 1 1 1 1 1 1 0 -0 -0 -0 0 0 0 0 0 0 0 0 1
-2 3 11 22 18 14 11 11 8 6 5 7 14 13 7 -1 -0 1 1 1 0 -0 -1 -1 -2 -3 -3 -4 -4 -4 -4 -3 -3 -2 -1 -1 -1 -0 0 1 1 2 2 2 1 1 1 1 1 1 1 2 1 1 0 0 -0 -0 -0 -0 0 0 0 0 0 1 1 1 1
3 8 15 20 18 14 9 6 2 1 3 9 16 14 8 1 -0 -0 -0 -0 -0 -1 -1 -1 -1 -2 -3 -4 -4 -4 -3 -3 -3 -2 -1 -1 -0 0 1 1 2 2 1 1 1 1 1 1 1 1 1 1 1 0 -0 -0 -0 -0 -0 -0 -0 -0 0 0 1 1 1 1 1
8 12 16 20 16 11 5 -0 -1 2 8 16 18 15 10 4 1 -0 -0 0 -0 -0 -0 -0 -1 -1 -2 -2 -3 -3 -3 -3 -3 -2 -1 -0 0 1 1 2 1 1 1 1 1 1 1 1 1 1 1 0 -0 -0 -0 -0 -0 -0 -0 -0 0 0 1 1 1 1 1 1 1
10 12 14 15 11 6 1 -1 4 10 16 20 16 12 7 4 1 1 1 1 1 1 0 -1 -1 -1 -2 -2 -2 -2 -2 -2 -1 -1 -0 1 1 2 2 1 1 1 1 1 1 1 1 1 1 1 0 0 -0 -0 -0 -0 0 0 0 1 1 1 1 2 1 1 1 1 1
5 6 6 6 4 3 4 6 13 17 18 15 9 5 3 2 2 2 2 2 1 0 -0 -1 -1 -1 -1 -1 -1 -1 -1 -0 1 1 2 2 2 2 1 1 1 1 1 1 1 1 1 1 1 0 0 0 -0 0 0 0 1 1 1 2 2 2 2 2 1 1 1 1 1
-0 -0 -0 1 3 6 10 14 17 15 12 6 3 2 2 3 3 2 2 1 0 -0 -1 -1 -1 -1 -1 -1 -0 -0 0 1 2 2 2 2 2 1 1 1 1 1 1 1 0 0 1 1 1 0 0 0 0 0 1 1 1 2 2 2 2 2 1 1 1 1 1 1 1
-2 -2 -1 1 7 11 13 13 11 8 4 2 3 3 4 3 2 1 0 -0 -1 -1 -1 -1 -1 -0 -0 -0 0 1 1 2 2 2 2 2 1 1 1 1 0 0 0 0 0 1 1 1 1 0 0 0 1 1 1 2 2 2 2 2 1 1 1 0 0 0 0 0 1
1 2 4 7 10 10 9 7 6 5 5 6 6 4 3 1 -0 -1 -1 -2 -2 -2 -2 -1 -0 0 0 0 1 1 2 2 2 1 1 1 0 0 0 0 0 0 0 1 1 1 1 1 1 1 1 1 1 1 2 2 2 2 1 1 1 0 0 0 0 0 0 1 1
8 9 10 12 10 8 7 6 6 7 8 7 4 2 -0 -2 -2 -2 -2 -2 -2 -2 -1 -0 0 1 1 1 1 1 1 1 1 1 0 -0 -0 -0 0 0 0 0 1 1 1 1 1 1 1 1 1 1 1 2 2 2 1 1 1 0 0 0 0 0 0 0 1 1 1
13 14 14 13 11 10 8 8 8 7 5 2 0 -2 -3 -3 -3 -2 -2 -2 -1 -0 1 1 1 1 1 1 1 1 1 1 0 0 -0 -0 -0 0 0 1 1 1 1 1 1 1 1 1 1 1 1 1 1 1 1 1 1 1 0 0 0 0 0 0 0 0 0 1 0
14 14 14 13 12 10 8 7 5 3 1 -1 -2 -3 -3 -2 -2 -1 -1 -0 1 1 2 2 1 1 1 1 1 1 0 0 -0 -0 -0 -0 0 1 1 1 1 1 1 1 1 1 1 1 1 1 1 1 1 1 0 0 0 0 0 0 0 0 0 0 0 0 0 0 -0
10 11 11 10 8 6 5 3 1 -0 -1 -2 -2 -2 -1 -1 -0 0 1 2 2 2 2 1 1 1 0 0 0 0 0 0 0 0 0 0 1 1 1 1 1 1 1 1 1 1 1 1 1 1 1 1 0 0 0 -0 -0 -0 -0 -0 -0 -0 -0 -0 -0 -0 -0 -0 -0
5 6 5 4 3 2 1 1 -0 -1 -1 -1 -1 -1 -0 0 1 1 2 3 3 2 2 1 1 1 1 1 1 1 1 1 0 1 1 1 1 1 1 1 1 1 1 1 1 1 1 1 1 1 1 0 0 0 -0 -0 -0 -0 -0 -0 -0 -0 -0 -0 -0 -0 -0 -0 0
1 1 1 0 -0 -0 -0 -0 -1 -1 -0 0 0 1 1 2 2 3 3 2 2 1 1 1 1 1 1 1 1 1 1 1 1 1 1 1 1 1 1 1 1 1 1 1 1 1 1 1 1 1 0 0 0 0 -0 -0 -0 -0 -0 -0 -0 -0 -0 -0 -0 -0 0 0 1
-1 -1 -1 -1 -1 -0 -0 -1 -1 1 2 3 2 2 2 3 3 3 2 1 1 0 -0 0 1 1 1 1 1 1 1 1 1 1 1 1 1 1 1 1 1 1 1 1 1 1 1 1 1 1 0 0 0 -0 -0 -0 -0 -0 -0 -0 -0 -0 -0 0 0 0 1 1 1
-0 -1 -1 -1 -0 0 0 1 2 4 6 6 4 3 2 2 1 1 0 -0 -0 -0 -0 0 1 1 1 1 1 1 1 1 1 1 1 1 1 1 1 1 1 1 1 1 1 1 1 1 1 0 0 0 0 -0 -0 -0 -0 -0 -0 -0 -0 0 0 0 0 1 1 1 1
0 0 0 0 1 1 2 3 5 7 8 7 5 2 1 -0 -1 -1 -1 -1 -0 0 0 1 1 1 1 1 1 1 1 1 1 1 1 1 1 1 1 1 1 1 1 1 1 1 0 0 0 0 0 0 0 -0 -0 -0 -0 -0 -0 0 0 0 0 0 1 1 1 1 1
3 4 4 4 4 4 4 4 5 5 5 4 1 -0 -1 -2 -2 -1 -1 -0 0 1 1 1 1 1 1 1 2 2 2 2 2 1 1 1 0 1 1 1 0 0 0 0 0 0 0 1 1 1 1 0 0 0 0 0 0 0 0 0 0 0 0 0 1 1 1 1 1
7 8 8 7 6 5 4 3 2 2 1 -1 -2 -2 -2 -2 -1 -0 0 1 1 1 2 2 2 2 2 2 2 2 2 2 1 1 1 0 0 0 1 0 0 0 0 0 0 1 1 1 1 1 1 0 0 0 0 0 0 0 0 0 0 0 0 0 1 1 1 1 1
Height
5610 5618 5626 5633 5641 5649 5656 5663 5668 5673 5678 5683 5688 5693 5697 5701 5704 5706 5709 5712 5715 5718 5721 5722 5724 5726 5729 5731 5734 5737 5739 5741 5743 5745 5747 5749 5751 5753 5755 5756 5757 5759 5760 5761 5762 5763 5764 5765 5766 5766 5767 5767 5768 5769 5769 5770 5770 5770 5771 5771 5771 5771 5771 5771 5771 5771 5771 5771 5771
5611 5618 5626 5635 5643 5650 5657 5663 5668 5673 5678 5684 5689 5693 5697 5700 5703 5705 5708 5711 5715 5718 5720 5721 5723 5725 5728 5731 5733 5736 5738 5740 5742 5744 5746 5748 5750 5752 5753 5755 5756 5758 5759 5760 5761 5762 5763 5764 5764 5765 5766 5766 5766 5767 5768 5768 5768 5769 5769 5769 5769 5770 5770 5770 5770 5770 5770 5770 5769
5613 5620 5628 5636 5645 5651 5658 5663 5668 5673 5678 5684 5688 5692 5696 5699 5701 5704 5707 5711 5714 5717 5719 5720 5721 5724 5727 5730 5732 5735 5737 5739 5741 5743 5745 5747 5749 5751 5752 5754 5755 5757 5758 5759 5760 5761 5761 5762 5763 5763 5764 5765 5765 5766 5766 5766 5767 5767 5768 5768 5768 5768 5768 5768 5768 5768 5768 5768 5768
5615 5622 5630 5638 5646 5652 5658 5663 5668 5673 5679 5684 5688 5692 5695 5698 5701 5704 5707 5710 5714 5717 5718 5719 5720 5723 5726 5729 5731 5734 5736 5737 5740 5741 5744 5746 5748 5750 5751 5753 5754 5756 5757 5758 5759 5760 5760 5761 5761 5762 5763 5763 5764 5764 5765 5765 5766 5766 5766 5766 5766 5767 5767 5767 5767 5767 5767 5766 5766
5616 5624 5632 5640 5647 5653 5659 5664 5669 5675 5679 5684 5687 5691 5695 5698 5701 5704 5707 5710 5713 5716 5716 5717 5719 5721 5725 5728 5730 5732 5734 5736 5738 5741 5742 5745 5746 5748 5750 5752 5753 5755 5756 5756 5757 5758 5759 5759 5760 5761 5761 5762 5762 5763 5763 5764 5764 5765 5765 5765 5765 5766 5766 5766 5766 5766 5765 5765 5765
5619 5627 5635 5643 5649 5654 5659 5665 5670 5675 5679 5683 5687 5691 5694 5697 5700 5703 5707 5711 5712 5714 5715 5716 5718 5721 5724 5727 5729 5731 5733 5735 5737 5740 5742 5744 5746 5747 5749 5751 5752 5753 5754 5755 5756 5756 5757 5758 5759 5759 5760 5761 5761 5762 5762 5762 5763 5763 5764 5764 5764 5764 5764 5764 5764 5764 5764 5763 5763
5622 5630 5638 5645 5650 5656 5661 5666 5671 5675 5679 5683 5687 5691 5694 5696 5699 5703 5706 5708 5710 5712 5714 5716 5717 5720 5723 5726 5728 5730 5732 5735 5737 5739 5741 5743 5744 5746 5748 5749 5751 5752 5753 5753 5754 5755 5756 5757 5757 5758 5759 5760 5760 5761 5761 5761 5762 5762 5763 5763 5763 5763 5763 5763 5763 5762 5762 5762 5761
5625 5632 5641 5647 5652 5657 5662 5666 5670 5675 5679 5683 5687 5690 5693 5696 5699 5703 5705 5707 5710 5712 5714 5715 5717 5720 5723 5725 5727 5730 5732 5734 5736 5738 5740 5742 5743 5745 5746 5748 5749 5750 5751 5752 5753 5754 5755 5756 5756 5757 5758 5758 5759 5759 5760 5760 5761 5761 5762 5762 5762 5761 5761 5761 5761 5761 5761 5760 5760
5628 5636 5644 5649 5654 5658 5662 5666 5671 5675 5680 5684 5687 5690 5692 5696 5699 5702 5705 5707 5710 5712 5714 5716 5718 5721 5723 5725 5727 5729 5731 5733 5735 5737 5739 5741 5742 5744 5745 5747 5748 5749 5750 5750 5751 5752 5754 5755 5755 5756 5756 5757 5757 5758 5759 5759 5760 5760 5761 5761 5760 5760 5760 5760 5760 5759 5759 5759 5759
5632 5640 5646 5650 5655 5659 5663 5667 5671 5676 5681 5684 5687 5690 5692 5696 5699 5701 5704 5707 5709 5711 5714 5716 5718 5720 5722 5724 5726 5728 5730 5732 5734 5736 5737 5739 5741 5743 5744 5745 5746 5747 5748 5749 5750 5751 5752 5753 5754 5755 5755 5756 5756 5757 5758 5758 5759 5759 5759 5759 5759 5759 5758 5758 5758 5758 5757 5757 5757
5636 5643 5647 5651 5655 5660 5664 5668 5673 5677 5681 5684 5687 5690 5693 5696 5699 5701 5704 5706 5709 5711 5713 5715 5717 5719 5721 5723 5725 5727 5729 5731 5733 5734 5736 5738 5740 5741 5742 5744 5745 5746 5747 5748 5749 5751 5751 5752 5753 5753 5754 5755 5756 5756 5757 5757 5757 5757 5757 5757 5757 5757 5757 5757 5756 5756 5756 5756 5756
5640 5645 5649 5653 5657 5661 5666 5670 5674 5678 5681 5685 5687 5690 5693 5696 5698 5701 5703 5706 5708 5710 5712 5714 5716 5718 5720 5722 5724 5726 5728 5730 5731 5733 5735 5737 5738 5740 5741 5742 5743 5745 5746 5747 5748 5749 5750 5751 5751 5752 5753 5754 5754 5755 5755 5756 5756 5756 5756 5756 5756 5756 5756 5755 5755 5755 5754 5754 5754
5642 5647 5651 5655 5659 5663 5668 5672 5676 5679 5682 5686 5688 5691 5693 5696 5699 5701 5703 5706 5708 5709 5711 5713 5715 5717 5719 5721 5723 5725 5727 5729 5730 5732 5734 5735 5737 5738 5740 5741 5742 5744 5745 5746 5747 5748 5749 5750 5750 5751 5752 5753 5753 5754 5754 5754 5754 5754 5754 5754 5754 5754 5754 5754 5753 5753 5753 5753 5752
5644 5648 5652 5656 5661 5665 5669 5673 5677 5680 5683 5686 5689 5692 5694 5696 5699 5701 5704 5707 5708 5709 5711 5713 5714 5716 5718 5720 5722 5724 5726 5728 5729 5731 5732 5734 5736 5737 5739 5740 5742 5743 5744 5745 5746 5747 5748 5748 5749 5750 5751 5751 5752 5752 5752 5752 5753 5753 5753 5753 5753 5753 5752 5752 5752 5752 5751 5751 5751
5646 5650 5654 5658 5663 5667 5671 5675 5678 5681 5684 5687 5690 5692 5695 5697 5699 5702 5706 5708 5709 5709 5710 5711 5713 5716 5718 5720 5721 5723 5725 5727 5728 5730 5731 5733 5735 5736 5738 5739 5741 5742 5743 5744 5745 5746 5746 5747 5748 5749 5750 5750 5751 5751 5751 5751 5751 5751 5751 5751 5751 5751 5751 5751 5751 5750 5750 5750 5750
5647 5652 5656 5660 5664 5668 5672 5676 5679 5682 5685 5688 5691 5693 5696 5698 5702 5705 5707 5707 5708 5708 5710 5711 5713 5716 5717 5719 5721 5722 5724 5726 5727 5729 5731 5732 5734 5736 5737 5739 5740 5741 5742 5743 5744 5745 5745 5746 5747 5748 5748 5749 5749 5749 5750 5750 5750 5750 5750 5750 5750 5750 5749 5749 5749 5749 5749 5748 5748
5649 5654 5658 5661 5666 5670 5673 5676 5680 5683 5686 5688 5691 5694 5697 5701 5704 5705 5706 5706 5707 5708 5709 5711 5713 5715 5717 5718 5720 5721 5723 5725 5726 5728 5730 5731 5733 5735 5736 5738 5739 5740 5741 5742 5743 5743 5744 5745 5746 5746 5747 5747 5748 5748 5748 5749 5749 5749 5749 5748 5748 5748 5748 5748 5748 5747 5747 5747 5746
5651 5655 5659 5663 5667 5671 5675 5678 5681 5683 5686 5689 5692 5696 5699 5702 5702 5703 5703 5705 5706 5708 5709 5711 5713 5714 5716 5717 5719 5721 5722 5724 5726 5727 5729 5731 5733 5734 5736 5737 5738 5739 5740 5741 5742 5742 5743 5744 5745 5745 5746 5746 5746 5747 5747 5747 5747 5747 5747 5747 5747 5746 5746 5746 5746 5746 5746 5745 5745
5652 5656 5661 5664 5668 5672 5676 5679 5682 5684 5686 5689 5692 5696 5699 5700 5700 5701 5702 5704 5706 5707 5709 5711 5712 5713 5715 5716 5718 5720 5722 5724 5726 5727 5729 5731 5732 5734 5735 5736 5737 5738 5739 5740 5741 5741 5742 5743 5744 5744 5744 5745 5745 5745 5746 5746 5746 5746 5746 5746 5746 5745 5745 5745 5745 5745 5744 5744 5743
5654 5658 5662 5667 5671 5674 5677 5680 5682 5684 5686 5690 5693 5696 5698 5697 5699 5701 5702 5704 5706 5707 5708 5710 5711 5713 5714 5716 5718 5720 5721 5723 5725 5727 5729 5730 5732 5733 5734 5735 5736 5737 5738 5739 5740 5741 5741 5742 5742 5743 5743 5744 5744 5744 5744 5744 5744 5744 5744 5744 5744 5744 5744 5744 5743 5743 5742 5742 5741
5656 5660 5664 5669 5672 5675 5677 5680 5682 5684 5688 5692 5695 5696 5697 5697 5700 5701 5702 5704 5705 5706 5708 5709 5711 5712 5714 5716 5718 5720 5721 5723 5725 5727 5728 5730 5731 5732 5733 5734 5736 5736 5737 5738 5739 5740 5740 5741 5741 5741 5742 5742 5742 5743 5743 5743 5743 5743 5743 5743 5743 5743 5742 5742 5742 5741 5741 5741 5740
5658 5662 5666 5670 5672 5675 5677 5680 5682 5686 5690 5694 5696 5696 5696 5697 5699 5701 5702 5703 5705 5706 5708 5709 5711 5712 5714 5716 5718 5720 5721 5723 5725 5726 5728 5729 5731 5731 5733 5734 5735 5736 5736 5737 5738 5738 5739 5740 5740 5741 5741 5741 5741 5741 5741 5741 5741 5741 5741 5741 5741 5741 5741 5741 5740 5740 5739 5739 5738
5660 5664 5667 5670 5672 5675 5677 5681 5685 5688 5691 5694 5695 5695 5695 5696 5698 5700 5701 5703 5705 5706 5708 5709 5711 5713 5715 5716 5718 5720 5722 5723 5725 5726 5727 5729 5730 5731 5732 5733 5734 5735 5736 5736 5737 5737 5738 5738 5739 5739 5739 5740 5740 5740 5740 5740 5740 5740 5740 5740 5740 5740 5739 5739 5739 5738 5738 5737 5737
5661 5664 5668 5671 5674 5676 5679 5683 5686 5689 5691 5693 5694 5694 5695 5696 5697 5700 5701 5703 5705 5706 5708 5710 5711 5713 5715 5716 5718 5720 5721 5723 5724 5725 5726 5728 5729 5730 5731 5732 5733 5734 5735 5735 5736 5736 5737 5737 5738 5738 5738 5738 5739 5739 5739 5739 5739 5739 5739 5739 5739 5738 5738 5737 5737 5737 5736 5736 5736
5663 5666 5669 5673 5675 5678 5681 5683 5686 5688 5690 5692 5693 5693 5694 5696 5697 5700 5702 5703 5705 5707 5708 5710 5712 5714 5715 5717 5718 5720 5721 5722 5723 5725 5726 5727 5728 5729 5731 5731 5732 5733 5734 5734 5735 5735 5736 5736 5736 5737 5737 5737 5737 5737 5737 5737 5737 5738 5737 5737 5737 5737 5737 5736 5736 5736 5735 5735 5735
5665 5668 5671 5674 5676 5679 5682 5685 5686 5688 5690 5691 5691 5692 5694 5696 5698 5700 5702 5704 5705 5707 5709 5711 5712 5714 5716 5717 5718 5719 5721 5722 5723 5724 5726 5726 5728 5729 5730 5731 5731 5732 5732 5733 5734 5734 5734 5735 5735 5736 5736 5736 5736 5736 5736 5736 5736 5736 5736 5736 5736 5736 5736 5735 5735 5735 5734 5734 5733
5666 5669 5671 5674 5677 5681 5683 5685 5687 5688 5689 5689 5690 5692 5694 5696 5698 5700 5702 5704 5706 5707 5709 5711 5712 5714 5715 5717 5718 5719 5720 5721 5723 5724 5725 5726 5727 5728 5729 5730 5731 5731 5731 5732 5732 5733 5733 5734 5734 5734 5734 5735 5735 5735 5735 5735 5735 5735 5735 5735 5735 5735 5734 5734 5734 5733 5733 5732 5732
5668 5670 5673 5675 5678 5681 5683 5685 5686 5687 5687 5688 5690 5693 5695 5697 5699 5700 5702 5704 5706 5707 5709 5711 5712 5714 5715 5716 5718 5719 5720 5721 5723 5724 5725 5726 5727 5727 5728 5729 5730 5730 5731 5731 5731 5732 5732 5732 5733 5733 5733 5733 5734 5734 5734 5734 5734 5734 5734 5734 5733 5733 5733 5733 5732 5732 5731 5731 5731
5669 5671 5673 5676 5678 5680 5682 5683 5685 5686 5687 5689 5691 5693 5695 5697 5699 5701 5703 5704 5706 5708 5709 5711 5712 5714 5715 5716 5717 5719 5720 5721 5722 5723 5724 5725 5726 5726 5727 5728 5729 5729 5730 5730 5730 5731 5731 5731 5731 5732 5732 5732 5732 5733 5733 5733 5733 5733 5733 5732 5732 5732 5732 5731 5731 5731 5730 5730 5729
5670 5671 5674 5676 5678 5679 5681 5683 5684 5686 5687 5689 5691 5693 5695 5697 5700 5701 5703 5705 5706 5708 5709 5711 5712 5713 5715 5716 5717 5718 5720 5721 5721 5722 5723 5724 5725 5726 5726 5727 5728 5728 5728 5729 5729 5730 5730 5730 5731 5731 5731 5731 5731 5731 5732 5732 5732 5731 5731 5731 5731 5731 5730 5730 5730 5729 5729 5728 5728
5670 5672 5674 5676 5678 5680 5681 5683 5684 5686 5688 5690 5692 5694 5696 5698 5700 5702 5703 5705 5706 5707 5709 5710 5712 5713 5714 5716 5717 5718 5719 5720 5721 5722 5723 5724 5724 5725 5726 5726 5727 5727 5727 5728 5728 5729 5729 5729 5729 5730 5730 5730 5730 5731 5731 5731 5730 5730 5730 5730 5730 5729 5729 5729 5728 5728 5728 5727 5726
5671 5672 5674 5676 5678 5680 5681 5683 5685 5686 5688 5691 5693 5695 5697 5699 5700 5702 5703 5705 5706 5707 5709 5710 5711 5713 5714 5715 5716 5717 5718 5720 5720 5721 5722 5723 5724 5724 5725 5725 5726 5726 5726 5727 5727 5727 5728 5728 5728 5729 5729 5729 5729 5729 5729 5729 5729 5729 5729 5729 5728 5728 5728 5727 5727 5727 5726 5726 5725
5671 5673 5675 5676 5678 5680 5682 5684 5686 5688 5690 5692 5694 5696 5697 5699 5700 5701 5703 5705 5706 5707 5709 5710 5712 5713 5714 5715 5716 5717 5718 5719 5720 5721 5721 5722 5723 5723 5724 5724 5725 5725 5725 5726 5726 5726 5726 5727 5727 5727 5728 5728 5728 5728 5728 5728 5728 5727 5727 5727 5727 5727 5726 5726 5726 5725 5725 5724 5724
5672 5674 5676 5677 5679 5681 5683 5685 5687 5689 5691 5693 5695 5696 5697 5699 5700 5702 5703 5705 5706 5708 5709 5711 5712 5713 5714 5715 5716 5717 5718 5719 5719 5720 5721 5721 5722 5722 5723 5723 5723 5724 5724 5725 5725 5725 5726 5726 5726 5726 5726 5726 5726 5726 5726 5726 5726 5726 5726 5726 5726 5725 5725 5725 5724 5724 5723 5723 5722
5673 5675 5676 5678 5680 5682 5684 5686 5688 5690 5691 5693 5695 5696 5697 5699 5701 5702 5704 5705 5707 5708 5709 5711 5712 5713 5714 5715 5716 5716 5717 5718 5719 5719 5720 5720 5721 5721 5721 5722 5722 5723 5723 5723 5724 5724 5724 5725 5725 5725 5725 5725 5725 5725 5725 5725 5725 5725 5725 5724 5724 5724 5723 5723 5723 5722 5722 5721 5721
5674 5675 5677 5679 5681 5683 5685 5686 5688 5690 5691 5693 5695 5696 5698 5700 5701 5703 5704 5706 5707 5708 5710 5711 5712 5713 5714 5715 5715 5716 5716 5717 5718 5718 5719 5719 5719 5720 5720 5721 5721 5721 5722 5722 5722 5723 5723 5723 5723 5724 5724 5724 5724 5724 5724 5724 5724 5724 5723 5723 5723 5722 5722 5722 5721 5721 5721 5721 5720
5674 5676 5678 5680 5681 5683 5685 5686 5688 5690 5691 5693 5695 5696 5698 5700 5701 5703 5704 5706 5707 5709 5710 5711 5712 5712 5713 5714 5715 5715 5716 5716 5716 5717 5717 5718 5718 5719 5719 5720 5720 5720 5721 5721 5721 5721 5722 5722 5722 5722 5722 5722 5723 5723 5723 5723 5722 5722 5722 5722 5721 5721 5721 5721 5721 5720 5720 5719 5719
5675 5676 5678 5679 5681 5683 5685 5686 5688 5690 5691 5693 5694 5696 5698 5700 5702 5703 5705 5706 5707 5708 5709 5710 5711 5711 5712 5713 5713 5714 5714 5715 5715 5716 5716 5717 5717 5718 5718 5718 5719 5719 5719 5720 5720 5720 5721 5721 5721 5721 5721 5721 5721 5721 5721 5721 5721 5721 5721 5721 5720 5720 5720 5720 5719 5719 5719 5718 5718
5674 5676 5677 5679 5681 5682 5684 5686 5688 5690 5691 5693 5695 5696 5698 5700 5702 5703 5705 5706 5707 5708 5709 5709 5710 5711 5711 5711 5712 5712 5713 5714 5714 5715 5715 5716 5716 5716 5717 5717 5718 5718 5718 5719 5719 5719 5719 5720 5720 5720 5720 5720 5720 5720 5720 5720 5720 5720 5720 5720 5719 5719 5719 5719 5718 5718 5717 5717 5716
5675 5676 5677 5679 5681 5682 5684 5686 5688 5690 5692 5693 5695 5697 5699 5701 5702 5703 5704 5705 5706 5707 5707 5708 5709 5709 5710 5710 5711 5711 5712 5713 5713 5714 5714 5715 5715 5715 5716 5716 5716 5717 5717 5717 5718 5718 5718 5718 5718 5719 5719 5719 5719 5719 5719 5719 5719 5719 5719 5718 5718 5718 5718 5717 5717 5717 5716 5716 5715
5676 5677 5679 5680 5681 5683 5685 5687 5689 5691 5693 5695 5696 5698 5699 5700 5701 5702 5703 5704 5705 5706 5706 5707 5708 5708 5709 5709 5710 5711 5711 5712 5712 5713 5713 5714 5714 5715 5715 5715 5716 5716 5716 5716 5717 5717 5717 5717 5717 5717 5717 5717 5717 5718 5718 5717 5717 5717 5717 5717 5717 5717 5717 5716 5716 5716 5715 5715 5714